User: anonymous   Login
Location: Unspecified
(0.0000°N, 0.0000°E)
Time: 13:59:36
(UTC+02:00)
Language:

Cosmos 1953 Rocket - Orbit

View from above orbital plane
View from above orbital plane
View from above satellite
View from above satellite

Ground track
Ground track

The orbit data is extracted from the following two-line orbital elements,

1 19211U 88050B   16206.22156565  .00000113  00000-0  10850-4 0  9995
2 19211  82.5279 149.1428 0023310 116.2550   3.8520 14.82908054518189
Epoch (UTC): 24 July 2016 05:19:03
Eccentricity: 0.0023310
inclination: 82.5279°
perigee height: 604 km
apogee height: 636 km
right ascension of ascending node: 149.1428°
argument of perigee: 116.2550°
revolutions per day: 14.82908054
mean anomaly at epoch: 3.8520°
orbit number at epoch: 51818

The dashed part of the orbit path shows where the satellite is in the earth's shadow,  

DLR